Wind_Speed
8 8 8 7 7 7 7 7 7 6 7 7 7 8 8 8 8 8 7 7 7 7 7 7 7 7 7 7 7 7 6 7 7 7 6 6 7 7 7 7 8 8 8
9 9 9 9 8 8 8 7 8 7 7 8 8 8 9 9 9 9 8 8 9 9 9 8 8 8 8 8 8 8 8 8 8 8 8 8 8 8 8 9 9 9 9
10 9 9 10 9 9 9 9 9 9 9 9 9 9 9 9 9 9 9 9 9 9 9 9 9 9 9 9 9 9 9 9 9 9 9 8 8 9 9 10 10 10 10
11 10 10 10 11 10 10 10 10 10 10 10 10 10 10 10 10 10 10 9 10 10 10 10 10 10 10 10 10 10 10 10 10 9 9 9 9 9 10 10 11 11 11
11 11 11 11 11 12 12 11 10 10 10 10 11 11 11 11 11 11 11 10 10 10 10 10 10 10 10 11 11 11 11 11 11 10 10 10 11 10 11 11 11 12 12
12 12 12 12 12 12 11 10 10 10 11 11 11 11 11 11 11 11 12 12 11 12 12 11 11 11 11 11 12 12 12 12 12 11 11 11 11 11 12 12 12 13 14
13 12 12 12 12 12 12 11 11 11 12 12 12 12 12 12 12 13 13 13 13 13 12 12 12 13 13 13 13 13 13 13 13 12 12 11 11 12 12 13 13 14 14
13 12 12 13 13 13 13 13 12 12 12 13 13 14 14 14 13 13 13 14 14 14 14 13 14 14 14 14 14 14 14 14 13 13 12 12 12 13 13 14 15 15 15
15 13 12 13 14 14 14 14 14 13 14 14 14 15 15 15 14 14 15 15 15 15 14 15 15 15 15 15 15 15 15 15 14 14 14 14 14 14 14 14 15 15 15
16 15 14 14 15 15 16 15 15 15 15 15 15 16 16 16 15 16 16 16 16 16 16 16 16 16 16 16 16 16 16 15 15 15 15 16 15 15 15 15 14 15 15
17 18 17 16 16 17 16 17 16 16 16 16 16 16 16 16 17 17 16 16 17 18 17 17 17 17 17 17 17 17 17 16 16 16 16 17 16 16 17 16 16 15 16
18 19 19 18 18 18 17 17 17 17 17 18 17 17 17 17 18 18 18 18 18 19 19 19 18 18 19 18 18 18 18 17 17 17 18 18 18 17 17 18 17 17 17
19 19 20 18 18 18 18 17 18 18 18 18 18 18 18 18 18 18 18 18 19 20 20 20 20 20 20 20 19 19 19 18 18 18 18 18 19 19 19 19 18 18 19
20 19 18 19 19 18 18 17 17 17 17 17 18 18 18 18 18 19 19 19 19 20 20 21 22 22 21 21 21 20 20 20 20 19 19 19 19 19 19 20 19 20 20
20 19 19 19 20 19 19 19 18 18 18 18 18 19 19 19 19 19 20 20 20 21 20 21 22 22 21 22 22 21 21 21 21 20 20 20 20 20 20 20 19 19 20
20 19 19 19 19 19 19 19 19 19 19 19 19 20 20 20 20 20 21 21 22 21 20 20 21 21 22 22 21 21 21 21 22 22 21 21 21 21 21 21 21 21 22
20 20 19 18 19 20 20 20 20 19 20 19 19 20 20 20 20 20 20 21 21 20 20 20 21 21 21 21 21 20 20 20 21 22 22 22 22 22 22 22 22 22 22
20 20 20 20 19 19 19 20 20 19 19 19 20 20 20 20 21 21 21 21 20 21 21 21 21 21 21 21 21 21 21 21 21 21 21 21 21 22 23 23 23 23 23
20 21 21 21 20 19 19 19 19 19 19 19 19 19 20 21 22 22 21 21 21 21 21 21 21 21 21 21 21 21 22 22 22 22 21 21 21 21 23 23 24 25 24
20 20 21 20 20 20 20 19 19 18 19 19 20 20 21 21 21 21 22 21 21 21 21 21 22 22 22 21 22 22 22 23 22 22 22 22 22 23 24 24 24 24 25
20 20 21 20 20 20 20 19 19 19 20 20 20 20 21 21 21 22 21 21 21 22 22 22 22 22 22 22 22 22 22 22 23 23 22 22 22 23 24 24 25 25 26
19 19 19 20 19 20 20 20 20 20 20 21 21 21 21 21 21 22 22 21 21 21 22 22 22 22 22 22 22 23 23 22 22 22 22 23 23 24 25 25 26 27 27
19 19 19 19 19 19 19 20 20 20 21 22 21 22 22 22 22 22 22 22 22 23 22 21 21 21 21 21 21 21 21 22 22 22 23 24 24 25 26 27 27 28 28
17 18 18 19 19 19 20 20 20 20 21 22 22 22 23 22 22 22 22 21 22 23 22 20 21 21 21 21 21 20 20 21 22 23 24 24 25 26 27 27 28 29 30
16 17 18 18 18 19 19 20 20 19 20 20 20 20 20 21 22 23 22 21 22 21 21 20 21 21 22 22 21 21 21 22 23 25 24 25 26 28 28 29 29 30 31
15 17 17 17 17 17 18 18 18 19 19 19 20 19 20 21 21 21 21 21 21 21 21 21 21 21 21 21 22 22 22 23 24 25 26 26 26 28 29 30 30 30 31
Wind_Direction
274 271 267 266 267 263 263 266 266 268 272 270 268 272 265 263 265 268 273 274 276 279 282 284 284 280 280 280 280 281 282 280 278 281 281 280 277 272 270 267 264 259 256
277 275 274 272 267 264 264 270 272 272 272 272 272 271 267 264 267 271 274 276 279 280 281 282 282 280 280 281 280 280 279 278 278 276 276 276 274 269 264 262 262 258 256
276 276 277 275 273 268 267 270 273 275 276 275 274 273 268 267 271 274 277 280 282 283 282 281 281 280 281 281 280 279 277 276 278 277 275 276 272 268 266 263 263 261 257
275 274 275 277 275 271 268 270 273 275 276 275 275 274 272 273 272 274 277 280 283 284 282 282 282 281 283 283 281 279 278 277 276 275 272 271 269 268 266 266 263 262 261
272 274 276 276 274 272 268 270 273 272 275 276 277 278 276 273 273 276 276 277 281 283 285 284 282 283 284 285 282 280 279 278 274 272 271 270 269 268 268 267 265 262 262
274 275 276 275 274 272 272 275 274 273 277 280 280 279 280 279 276 278 277 277 279 282 285 287 285 284 285 286 284 282 281 278 276 273 270 270 271 269 268 267 267 265 265
271 273 272 271 271 271 270 273 278 278 280 281 280 280 280 280 280 279 279 280 281 284 285 287 287 285 285 285 285 284 282 279 277 275 274 273 273 272 270 268 267 267 265
271 273 272 271 269 271 270 272 277 280 282 282 281 282 281 280 280 281 282 283 283 285 285 286 284 285 285 285 284 283 282 280 278 275 273 273 274 274 274 271 268 266 266
271 269 271 270 266 268 269 271 275 279 282 282 281 281 281 281 280 283 287 286 284 286 286 285 284 283 283 283 284 283 282 281 279 278 276 274 274 273 273 273 269 266 265
272 271 268 265 267 270 270 272 275 277 280 282 283 282 282 280 282 284 288 289 286 287 286 286 285 285 285 284 284 282 280 279 280 278 276 275 274 272 272 271 268 266 265
268 271 269 266 267 270 271 272 275 276 277 278 281 282 282 283 283 283 285 288 289 289 289 288 286 285 284 285 285 283 279 277 276 276 276 275 275 272 270 269 268 267 265
268 269 270 269 269 270 272 272 273 275 276 277 277 279 281 283 284 285 286 286 288 290 290 289 288 286 284 284 286 285 281 277 276 275 274 274 274 272 270 269 267 266 266
269 267 269 270 271 271 272 274 275 275 274 276 277 278 279 283 285 287 287 287 288 288 289 289 288 286 285 283 283 283 281 280 278 276 276 276 272 270 270 269 265 267 267
267 267 269 269 270 271 274 277 276 275 275 277 278 279 279 283 284 285 287 289 290 290 290 289 288 286 283 282 282 282 282 280 279 278 277 276 273 271 270 270 268 268 266
266 267 269 271 272 270 272 273 275 276 278 280 281 282 281 283 285 287 287 290 291 292 291 291 290 286 284 283 281 280 280 281 277 278 278 277 274 270 268 269 269 271 267
265 268 270 271 274 273 272 271 275 276 278 279 282 285 285 285 285 287 287 291 292 292 291 294 294 289 288 286 283 281 279 279 278 277 277 277 273 270 270 268 270 273 272
264 266 268 269 270 272 273 274 276 277 277 279 283 286 286 289 289 291 290 291 291 290 292 294 296 294 291 289 285 284 282 280 281 279 277 275 273 270 269 269 271 272 272
264 265 268 269 270 271 272 274 277 277 277 281 284 285 287 289 292 293 291 291 291 291 293 294 296 294 292 290 288 287 285 283 282 284 280 277 275 273 271 271 272 270 270
266 267 269 270 269 271 273 277 278 277 277 282 283 286 287 289 292 293 292 291 292 293 294 295 296 294 291 289 287 288 288 286 285 285 283 279 278 276 274 273 273 272 270
266 268 270 271 269 270 273 277 279 279 279 281 280 283 287 289 291 292 291 292 292 293 294 296 296 294 291 290 289 288 289 288 286 285 283 282 281 279 278 276 273 273 270
266 267 270 272 273 274 275 277 279 279 280 282 281 284 287 287 289 291 290 292 292 292 292 292 293 292 291 291 290 288 287 286 286 284 283 283 284 283 282 280 279 277 275
266 266 269 271 273 274 276 277 278 279 280 281 283 285 286 286 286 288 290 291 293 293 292 290 291 291 292 291 290 288 286 285 286 286 285 286 287 286 284 283 281 279 279
265 266 269 271 272 273 273 274 277 280 283 282 283 285 286 287 288 290 291 292 292 294 293 290 291 293 294 294 294 292 288 287 286 289 289 289 289 288 285 283 283 282 281
266 265 267 269 271 272 274 275 277 280 282 283 284 285 287 290 292 293 293 294 296 296 294 290 291 293 295 295 295 295 293 290 289 292 291 290 288 287 283 283 283 283 282
267 267 268 268 270 272 274 277 278 280 284 287 290 291 291 293 295 294 292 294 296 296 294 292 291 293 294 293 293 293 292 292 293 292 291 292 290 289 288 285 283 283 282
272 271 270 269 270 271 274 277 280 281 286 290 294 294 294 295 295 296 295 295 296 295 295 294 293 294 293 293 294 293 291 292 294 293 292 292 292 290 290 287 285 284 283
Height
5887 5886 5887 5887 5887 5888 5888 5888 5887 5887 5887 5887 5887 5887 5887 5887 5886 5886 5886 5885 5885 5884 5884 5883 5883 5882 5882 5881 5881 5881 5881 5881 5881 5881 5881 5881 5880 5880 5881 5881 5881 5882 5883
5885 5885 5886 5886 5886 5886 5887 5886 5886 5886 5886 5886 5885 5885 5885 5885 5885 5885 5884 5884 5883 5883 5882 5882 5881 5881 5881 5880 5880 5879 5879 5879 5879 5879 5879 5879 5879 5879 5879 5879 5880 5880 5881
5884 5884 5884 5885 5885 5885 5885 5885 5885 5885 5884 5884 5884 5884 5884 5884 5884 5883 5883 5882 5882 5881 5881 5881 5880 5880 5879 5879 5878 5878 5878 5877 5878 5878 5877 5877 5877 5878 5878 5878 5878 5878 5879
5883 5883 5883 5883 5883 5883 5883 5883 5883 5883 5883 5883 5882 5882 5882 5882 5882 5881 5881 5881 5880 5880 5879 5879 5879 5878 5878 5877 5877 5877 5876 5876 5876 5876 5876 5876 5876 5876 5876 5876 5876 5876 5877
5881 5881 5881 5881 5882 5882 5882 5882 5881 5881 5881 5881 5881 5880 5880 5880 5880 5879 5879 5879 5878 5878 5877 5877 5877 5876 5876 5876 5875 5875 5874 5874 5874 5874 5874 5874 5874 5874 5873 5874 5874 5874 5875
5879 5879 5879 5879 5880 5880 5880 5880 5880 5880 5879 5879 5879 5878 5878 5878 5877 5877 5877 5876 5876 5876 5875 5875 5874 5874 5874 5873 5873 5873 5872 5872 5872 5872 5872 5872 5872 5871 5871 5871 5872 5872 5872
5877 5877 5877 5877 5877 5877 5878 5878 5878 5878 5878 5877 5877 5876 5876 5876 5875 5875 5874 5874 5874 5873 5873 5872 5872 5872 5871 5871 5871 5870 5870 5869 5869 5869 5869 5869 5869 5869 5869 5869 5869 5869 5870
5874 5874 5875 5875 5875 5875 5875 5875 5876 5875 5875 5875 5875 5874 5873 5873 5873 5872 5872 5871 5871 5871 5870 5870 5869 5869 5869 5868 5868 5867 5867 5866 5866 5866 5867 5866 5866 5866 5866 5866 5866 5867 5867
5871 5871 5872 5872 5872 5873 5873 5873 5873 5873 5873 5873 5872 5872 5871 5871 5870 5870 5869 5869 5868 5868 5867 5867 5866 5866 5866 5865 5864 5864 5864 5863 5863 5863 5863 5863 5863 5863 5863 5863 5863 5864 5864
5869 5868 5869 5869 5870 5870 5870 5870 5870 5870 5870 5870 5869 5869 5868 5868 5867 5867 5866 5866 5865 5865 5864 5864 5863 5863 5862 5862 5861 5861 5860 5860 5860 5860 5860 5860 5860 5860 5860 5860 5860 5861 5861
5866 5865 5866 5866 5867 5867 5867 5867 5867 5867 5867 5866 5866 5865 5865 5864 5864 5864 5863 5863 5862 5861 5861 5860 5860 5859 5858 5858 5857 5857 5856 5856 5856 5857 5856 5856 5856 5856 5857 5857 5857 5857 5858
5863 5862 5862 5862 5863 5863 5864 5864 5864 5863 5863 5863 5863 5862 5862 5861 5861 5860 5860 5859 5858 5858 5857 5857 5856 5855 5854 5854 5853 5853 5852 5852 5852 5852 5852 5852 5852 5853 5853 5853 5853 5853 5854
5859 5858 5858 5858 5859 5859 5860 5860 5860 5860 5860 5859 5859 5858 5858 5858 5857 5857 5856 5855 5855 5854 5853 5852 5852 5851 5850 5850 5849 5849 5848 5848 5848 5848 5848 5848 5848 5848 5849 5849 5849 5849 5850
5856 5855 5854 5854 5855 5855 5856 5856 5856 5856 5855 5855 5855 5855 5854 5854 5853 5853 5852 5852 5851 5850 5849 5848 5847 5846 5846 5845 5844 5844 5844 5844 5844 5844 5844 5844 5844 5844 5844 5844 5844 5845 5845
5852 5852 5851 5851 5850 5851 5852 5852 5852 5852 5852 5852 5851 5851 5850 5850 5849 5849 5848 5847 5847 5846 5844 5844 5842 5841 5841 5840 5839 5839 5839 5839 5839 5838 5839 5839 5839 5839 5839 5839 5839 5840 5840
5848 5848 5848 5848 5846 5846 5847 5848 5848 5848 5848 5847 5847 5846 5846 5846 5845 5844 5844 5843 5842 5841 5840 5839 5838 5836 5836 5835 5834 5834 5834 5834 5834 5833 5834 5834 5834 5834 5834 5834 5834 5835 5835
5843 5844 5844 5843 5843 5843 5844 5844 5844 5844 5844 5843 5843 5843 5842 5841 5841 5840 5840 5839 5838 5836 5835 5834 5833 5832 5830 5830 5829 5829 5828 5828 5828 5827 5828 5828 5828 5828 5828 5829 5829 5829 5829
5840 5840 5840 5839 5840 5840 5840 5840 5840 5840 5840 5839 5839 5838 5838 5837 5836 5836 5835 5835 5833 5832 5831 5830 5828 5827 5826 5825 5824 5824 5823 5822 5822 5822 5822 5821 5821 5822 5822 5823 5823 5823 5823
5836 5836 5836 5836 5837 5837 5836 5836 5837 5836 5836 5836 5835 5834 5834 5833 5832 5831 5831 5830 5829 5828 5827 5825 5824 5823 5821 5820 5819 5818 5817 5817 5816 5816 5816 5816 5815 5815 5816 5816 5817 5816 5816
5832 5832 5832 5833 5833 5832 5832 5833 5833 5832 5832 5832 5831 5831 5830 5829 5828 5827 5826 5825 5824 5823 5822 5821 5819 5818 5816 5815 5814 5813 5812 5811 5810 5810 5810 5810 5810 5810 5810 5810 5810 5810 5810
5827 5828 5828 5828 5828 5828 5828 5828 5829 5829 5828 5828 5827 5826 5826 5825 5824 5823 5822 5821 5820 5819 5817 5816 5814 5812 5811 5810 5808 5807 5807 5806 5805 5805 5804 5804 5804 5804 5803 5802 5803 5803 5803
5823 5823 5824 5824 5824 5824 5824 5824 5824 5824 5824 5824 5823 5822 5821 5820 5819 5818 5817 5816 5814 5813 5812 5810 5808 5807 5806 5805 5803 5802 5801 5801 5799 5799 5798 5798 5798 5797 5796 5796 5795 5795 5795
5819 5819 5820 5820 5820 5820 5820 5820 5820 5820 5820 5819 5819 5818 5817 5815 5814 5813 5812 5810 5809 5808 5806 5805 5803 5802 5801 5799 5797 5796 5795 5795 5794 5793 5792 5791 5791 5790 5789 5788 5788 5787 5786
5815 5815 5816 5816 5816 5816 5815 5815 5815 5815 5815 5814 5814 5812 5811 5810 5809 5808 5806 5805 5804 5802 5801 5799 5798 5797 5795 5794 5793 5791 5790 5789 5787 5787 5786 5784 5783 5782 5781 5780 5779 5778 5777
5811 5811 5812 5812 5812 5811 5811 5811 5811 5810 5810 5809 5808 5807 5806 5806 5804 5802 5801 5800 5798 5797 5795 5794 5793 5791 5790 5788 5787 5786 5785 5783 5781 5780 5780 5778 5776 5774 5773 5772 5771 5770 5768
5807 5807 5807 5808 5808 5807 5807 5807 5806 5805 5805 5804 5804 5803 5802 5801 5799 5797 5796 5795 5793 5791 5790 5789 5787 5785 5784 5782 5781 5780 5778 5777 5775 5773 5772 5770 5769 5767 5765 5763 5762 5760 5759